Location: Gälforsberget
(66.6500°N, 22.4167°E)
Time: 07:05:56
(UTC+00:00)

Cosmos 1980 - Pass Details

Date: 11 April 2026
Orbit: 839 x 845 km, 71.0° (Epoch: 13 May)

Event Time Altitude Azimuth Distance (km) Brightness Sun altitude
Exits shadow 20:47:39 - 199° (SSW) 2,836 6.0 -12.5°
Reaches altitude 10° 20:48:41 10° 197° (SSW) 2,458 5.7 -12.5°
Maximum altitude 20:54:04 48° 125° (SE) 1,091 3.9 -12.7°
Drops below altitude 10° 20:59:28 10° 52° (NE) 2,468 6.3 -13.0°
Sets 21:01:59 0° 47° (NE) 3,406 7.1 -13.0°
